Regional Weather Roundup
Issued by NWS Sterling, VA

Home | Current Version | Previous Version | Graphics & Text | Print | Product List | Glossary On
Versions: 1 2 3 4 5 6 7 8 9 10 11 12 13 14 15 16 17 18 19 20 21 22 23 24 25 26 27 28
000
ASUS41 KLWX 221511
RWRLWX

REGIONAL WEATHER ROUNDUP
NATIONAL WEATHER SERVICE BALTIMORE MD/WASHINGTON DC
1100 AM EDT THU JUN 22 2017

Note: "FAIR" indicates few or no clouds below 12,000 feet
with no significant weather and/or obstructions to visibility.
 TC=TEMPERATURE CELSIUS

 * =Non NWS site. Station does not report precipitation (e.g. rain,
    snow, etc.), thunder, or fog.

DCZ001-MDZ009-015-VAZ040>042-051-053>054-221600-
WASHINGTON METRO

CITY           SKY/WX    TMP DP  RH WIND       PRES   REMARKS
WASHINGTON NAT CLOUDY    84  72  67 S8        30.00F
DULLES         PTSUNNY   83  65  54 W5        30.01F
ANDREWS AFB    SUNNY     87  66  49 NW5       30.00F
FT BELVOIR     MOSUNNY   86  70  58 CALM      30.00F HX  90
QUANTICO       PTSUNNY   83  75  77 S7        30.02S HX  90
COLLEGE PARK*  MOSUNNY   85  67  54 CALM      29.99F
LEESBURG*      CLOUDY    84  70  61 W3        30.03S
MANASSAS*      PTSUNNY   85  69  58 W3        30.02S

$$

MDZ006>007-011-014-221600-
BALTIMORE METRO

CITY           SKY/WX    TMP DP  RH WIND       PRES   REMARKS
BWI AIRPORT    PTSUNNY   83  68  60 SE3       30.00F
MD SCIENCE CTR   N/A     85  72  65 MISG      30.00F HX  91
MARTIN STATE   PTSUNNY   82  72  69 SE5       30.01F
ANNAPOLIS      CLOUDY    81  74  79 SE6       30.00F
FORT MEADE*    CLOUDY    81  68  65 CALM      30.03F

$$

MDZ012-015-019>023-221600-
MARYLAND EASTERN SHORE

CITY           SKY/WX    TMP DP  RH WIND       PRES   REMARKS
OCEAN CITY     CLOUDY    79  72  79 S6        30.02S
SALISBURY      CLOUDY    85  73  67 S5        30.01R HX  91
BAY BRIDGE AP* CLOUDY    81  73  78 NW3       30.00F
CAMBRIDGE*     SUNNY     84  72  65 CALM      30.01R
EASTON*        PTSUNNY   86  68  54 W5        30.04S

$$

MDZ017>025-221600-
SOUTHERN MARYLAND

CITY           SKY/WX    TMP DP  RH WIND       PRES   REMARKS
PATUXENT RIVER CLOUDY    84  71  65 SW6       30.01S
ST INIGOES     CLOUDY    83  71  67 W8        30.02R
LEONARDTOWN*   CLOUDY    82  70  65 SW5       30.04R

$$

MDZ003>005-221600-
NORTH CENTRAL MARYLAND

CITY           SKY/WX    TMP DP  RH WIND       PRES   REMARKS
FREDERICK*     PTSUNNY   81  64  57 W6        30.04F
HAGERSTOWN APT CLOUDY    80  69  69 SW7       30.03S
WESTMINSTER*   PTSUNNY   81  68  65 SW5       30.03S

$$

MDZ501>502-221600-
WESTERN MARYLAND

CITY           SKY/WX    TMP DP  RH WIND       PRES   REMARKS
OAKLAND*       NOT AVBL
CUMBERLAND*    CLOUDY    79  70  73 SE5       30.07S

$$

VAZ025>031-221600-
SHENANDOAH VALLEY

CITY           SKY/WX    TMP DP  RH WIND       PRES   REMARKS
WINCHESTER*    CLOUDY    81  64  57 W8        30.03S
FRONT ROYAL*   CLOUDY    82  68  61 SW6       30.03S
LURAY*         MOSUNNY   81  66  61 S6        30.05F
NEW MARKET*    CLOUDY    82  65  56 CALM      30.05R
STAUNTON*      CLOUDY    80  65  62 S5        30.10R
WAYNESBORO*    CLOUDY    79  68  68 SW6       30.10S

$$

WVZ021-048>050-054>055-221600-
EASTERN WEST VIRGINIA PANHANDLE

CITY           SKY/WX    TMP DP  RH WIND       PRES   REMARKS
MARTINSBURG    CLOUDY    76  67  73 W5        30.02F
PETERSBURG*    CLOUDY    81  66  61 CALM      30.07S

$$

VAZ036>039-050-221600-
CENTRAL FOOTHILLS

CITY           SKY/WX    TMP DP  RH WIND       PRES   REMARKS
CHARLOTTESVILL CLOUDY    84  67  56 SW5       30.05R
CULPEPER*      CLOUDY    84  69  60 S6        30.04S
ORANGE*        CLOUDY    82  68  61 CALM      30.03S
GORDONSVILLE*  CLOUDY    83  70  64 S3        30.04R
WARRENTON*     CLOUDY    84  67  55 CALM      30.03R

$$

VAZ055>057-221600-
NORTH AND CENTRAL PIEDMONT

CITY           SKY/WX    TMP DP  RH WIND       PRES   REMARKS
FREDERICKSBRG* CLOUDY    86  69  58 SW7       30.02R HX  90
STAFFORD*      CLOUDY    84  67  56 CALM      30.07R

$$

NCZ024-NYZ072-PAZ021-071-VAZ022-071-221600-
OTHER REGIONAL OBSERVATIONS

CITY           SKY/WX    TMP DP  RH WIND       PRES   REMARKS
NEW YORK CITY  SUNNY     78  56  46 CALM      30.02F
PHILADELPHIA   PTSUNNY   84  61  45 VRB3      30.01S
PITTSBURGH     PTSUNNY   80  70  71 SW9       30.02F
ROANOKE        CLOUDY    80  66  62 W9        30.12S
RICHMOND       CLOUDY    84  71  65 SW7       30.04S
RALEIGH        PTSUNNY   81  74  79 SW9       30.10S

$$

ANZ530>537-221600-
MARINE OBSERVATIONS

STATION/POSITION TIME  TEMP    WIND        PRES
                       AIR SEA DIR/SP/G
                 (UTC) (F)     (DEG/KT/KT) (MB)
THOMAS PT LIGHT  1500   78 78  130/  4/  4   N/A
BALT KEY BRIDGE  1448   78     120/  6/  6 1015.6F
COVE POINT       1448   77     170/  5/  6 1017.0R
LEWISETTA        1448   81 77  250/  4/  5 1016.6R
SOLOMONS ISLAND  1448   81 77  150/  2/  2   N/A
PINEY POINT      1436          350/  5/  6   N/A

$$





USA.gov is the U.S. government's official web portal to all federal, state and local government web resources and services.